[[{"header":{"parameterUnit":"m.s-1","parameterCategory":1,"la1":30.2991,"la2":30.254,"lo1":-89.0895,"lo2":-89.0444,"dy":0.0017,"dx":0.0017,"nx":28,"ny":28,"refTime":"2025-03-25T21:00:00:Z","depth":0,"parameterNumber":2,"parameterNumberName":"U-component_of_WINDS"},"data":[0,0,0,0,0,0,0,0,0,0,0,0,0,0,0,0,0,0,0,0,0,0,0,0,0,0,0,0,0,0,0,0,0,0,0,0,0,0,0,0,0,0,0,0,0,0,0,0,0,0,0,0,0,0,0,0,0,0,-5.4596,-5.4597,0,-5.4696,-5.4697,-5.4698,-5.4639,-5.4636,-5.4633,-5.4631,-5.4733,-5.4739,-5.4744,0,0,0,0,0,0,0,0,0,0,0,0,0,-5.4359,-5.4364,-5.4596,-5.4598,-5.4599,-5.4695,-5.4697,-5.4698,-5.4639,-5.4636,-5.4633,-5.4629,-5.4732,-5.4738,-5.4744,0,0,0,0,0,0,0,0,0,0,0,0,0,-5.4461,-5.4365,-5.4596,-5.4581,-5.4581,-5.4695,-5.4697,-5.4698,-5.464,-5.4636,-5.4632,-5.4628,-5.4729,-5.4737,-5.4745,-5.488,0,0,-5.477,-5.4773,0,0,0,0,0,0,0,0,-5.4455,-5.4469,-5.4582,-5.4582,-5.4582,-5.465,-5.4651,-5.4759,-5.4641,-5.4618,-5.4631,-5.4626,-5.4709,-5.4719,-5.4747,-5.4885,-5.4889,-5.4771,-5.4775,-5.4779,-5.4781,0,0,0,0,0,0,0,-5.4448,-5.4465,-5.4636,-5.4584,-5.4584,-5.457,-5.458,-5.4671,-5.4686,-5.4619,-5.4615,-5.4628,-5.4708,-5.4739,-5.4749,-5.4891,-5.477,-5.4778,-5.4782,-5.4786,-5.5146,-5.5151,0,0,0,0,0,0,-5.4442,-5.4459,-5.4632,-5.4638,-5.4507,-5.4578,-5.4589,-5.4633,-5.4685,-5.4689,-5.4631,-5.4625,-5.4727,-5.4739,-5.4752,-5.4913,-5.4779,-5.4786,-5.4791,-5.5142,-5.5147,-5.5153,0,0,0,0,0,0,-5.4437,-5.4458,-5.4628,-5.4548,-5.4569,-5.4587,-5.4637,-5.4637,-5.4667,-5.4694,-5.4697,-5.466,-5.4724,-5.4741,-5.4849,-5.4916,-5.479,-5.4797,-5.5136,-5.5143,-5.515,-5.5237,0,0,0,0,0,0,-5.443,-5.4456,-5.4507,-5.4549,-5.4573,-5.4723,-5.4641,-5.4642,-5.4681,-5.4674,-5.4721,-5.4725,-5.4722,-5.4837,-5.4857,-5.4925,-5.4804,-5.513,-5.5139,-5.5148,-5.5229,-5.5247,-5.5262,0,0,0,0,0,-5.4422,-5.4527,-5.451,-5.4531,-5.4636,-5.4727,-5.474,-5.4735,-5.4687,-5.4738,-5.4756,-5.4723,-5.4906,-5.4849,-5.4871,-5.4942,-5.5126,-5.5137,-5.5147,-5.5221,-5.5243,-5.5262,0,0,0,0,0,0,-5.4491,-5.4532,-5.4513,-5.4635,-5.4678,-5.4717,-5.4781,-5.4758,-5.4815,-5.4806,-5.4797,-5.4809,-5.4922,-5.4943,-5.4878,-5.5076,-5.5009,-5.5024,-5.5057,-5.5079,-5.5095,-5.5087,-5.481,0,0,0,0,0,-5.4521,-5.459,-5.4623,-5.4728,-5.475,-5.4762,-5.4801,-5.4794,-5.4838,-5.4856,-5.4881,-5.4925,-5.4993,-5.5037,-5.5101,-5.5233,-5.5242,-5.5293,-5.531,-5.5323,-5.5336,-5.5408,-5.5431,-5.5188,-5.5188,-5.5187,0,0,-5.4583,-5.4614,-5.4658,-5.4742,-5.4774,-5.4847,-5.4778,-5.4857,-5.4911,-5.4868,-5.4971,-5.4992,-5.5041,-5.5162,-5.5216,-5.5183,-5.5406,-5.5337,-5.5348,-5.5353,-5.5421,-5.5444,-5.5465,-5.5195,-5.5194,-5.5192,0,0,-5.4731,-5.4762,-5.4853,-5.4887,-5.4937,-5.4945,-5.4967,-5.501,-5.5022,-5.5126,-5.5096,-5.5161,-5.5277,-5.5314,-5.5348,-5.5515,-5.5487,-5.5536,-5.5623,-5.5693,-5.5712,-5.5729,-5.5788,-5.581,-5.5549,-5.555,-5.555,0,-5.4801,-5.4909,-5.4902,-5.4985,-5.5023,-5.4989,-5.5081,-5.5115,-5.5184,-5.5211,-5.5174,-5.532,-5.5351,-5.548,-5.5521,-5.555,-5.5576,-5.5529,-5.571,-5.5727,-5.5743,-5.5799,-5.5821,-5.5555,-5.5554,-5.5554,-5.5553,0,-5.4992,-5.5068,-5.5135,-5.5203,-5.5249,-5.5336,-5.5344,-5.5393,-5.5383,-5.5395,-5.5503,-5.5539,-5.561,-5.564,-5.5631,-5.5769,-5.5747,-5.571,-5.5642,-5.5771,-5.5824,-5.5846,-5.5563,-5.5561,-5.5559,-5.5558,0,0,-5.5183,-5.5249,-5.5273,-5.5304,-5.5359,-5.5417,-5.5504,-5.5574,-5.5615,-5.5665,-5.5738,-5.5839,-5.5806,-5.5844,-5.5839,-5.5902,-5.6032,-5.5857,-5.5858,-5.5887,-5.6187,-5.6212,-5.6237,-5.6015,-5.6019,-5.6022,-5.6182,0,-5.5335,-5.5485,-5.5484,-5.5623,-5.5693,-5.5664,-5.5739,-5.5782,-5.5797,-5.586,-5.5877,-5.5948,-5.5899,-5.5922,-5.5983,-5.6003,-5.6091,-5.5992,-5.6082,-5.6086,-5.6068,-5.6265,-5.6292,-5.6441,-5.6203,-5.6206,-5.6209,0,-5.553,-5.5587,-5.5733,-5.5779,-5.5809,-5.5876,-5.5941,-5.6001,-5.605,-5.6057,-5.6102,-5.6088,-5.6178,-5.6109,-5.6233,-5.6165,-5.6203,-5.6219,-5.6225,-5.6231,-5.6153,-5.6275,-5.6488,-5.651,-5.6241,-5.6239,-5.6236,0,-5.5654,-5.5767,-5.5869,-5.5897,-5.5953,-5.6002,-5.6028,-5.6072,-5.6115,-5.6172,-5.62,-5.6267,-5.6304,-5.6357,-5.6362,-5.6312,-5.6488,-5.6419,-5.6496,-5.6496,-5.6531,-5.6529,-5.6752,-5.656,-5.6559,-5.6559,-5.6558,0,-5.5821,-5.5912,-5.5926,-5.5988,-5.609,-5.6089,-5.619,-5.6212,-5.6252,-5.632,-5.6299,-5.6363,-5.6367,-5.6434,-5.6439,-5.6541,-5.6558,-5.6566,-5.6566,-5.6567,-5.6566,-5.6589,-5.6579,-5.6565,-5.6563,-5.6562,-5.6561,0,-5.5975,-5.5988,-5.6097,-5.6143,-5.6157,-5.6229,-5.6269,-5.6329,-5.6344,-5.643,-5.645,-5.6473,-5.655,-5.6562,-5.6653,-5.6656,-5.6778,-5.6769,-5.6762,-5.6759,-5.6835,-5.6827,-5.7079,-5.7112,-5.69,-5.6902,-5.6904,0,-5.6079,-5.6148,-5.6202,-5.6246,-5.6274,-5.6345,-5.6389,-5.6392,-5.6439,-5.6501,-5.6555,-5.663,-5.669,-5.6815,-5.684,-5.691,-5.6901,-5.6985,-5.6911,-5.691,-5.6901,-5.6896,-5.6903,-5.6998,-5.7,-5.7002,-5.7004,0,-5.6264,-5.6267,-5.6331,-5.6398,-5.6451,-5.6504,-5.6554,-5.6591,-5.6601,-5.6655,-5.6734,-5.6781,-5.6874,-5.6949,-5.7019,-5.7047,-5.7028,-5.7027,-5.7048,-5.7048,-5.7041,-5.7045,-5.6798,-5.7021,-5.7019,-5.7018,-5.7017,-5.7016,-5.6395,-5.6455,-5.6503,-5.6575,-5.6614,-5.6661,-5.6721,-5.6744,-5.681,-5.6885,-5.6884,-5.6971,-5.7021,-5.7112,-5.7145,-5.7214,-5.7187,-5.7218,-5.7225,-5.7232,-5.7239,-5.7033,-5.7227,-5.7227,-5.7226,-5.7226,-5.7225,0,-5.6577,-5.6607,-5.6673,-5.6744,-5.6802,-5.678,-5.6835,-5.6885,-5.6961,-5.7009,-5.7069,-5.7161,-5.7235,-5.7267,-5.734,-5.7389,-5.7382,-5.7408,-5.7403,-5.741,-5.726,-5.7233,-5.7412,-5.7412,-5.7412,-5.7412,-5.7412,-5.7412,-5.6678,-5.6779,-5.6789,-5.691,-5.694,-5.7024,-5.7058,-5.7103,-5.7141,-5.7244,-5.7305,-5.7326,-5.7369,-5.7445,-5.7512,-5.752,-5.7547,-5.7577,-5.7581,-5.7439,-5.742,-5.7402,-5.7377,-5.7584,-5.7584,-5.7725,-5.7727,-5.7728]},{"header":{"parameterUnit":"m.s-1","parameterCategory":1,"la1":30.2991,"la2":30.254,"lo1":-89.0895,"lo2":-89.0444,"dy":0.0017,"dx":0.0017,"nx":28,"ny":28,"refTime":"2025-03-25T21:00:00:Z","depth":0,"parameterNumber":3,"parameterNumberName":"V-component_of_WINDS"},"data":[0,0,0,0,0,0,0,0,0,0,0,0,0,0,0,0,0,0,0,0,0,0,0,0,0,0,0,0,0,0,0,0,0,0,0,0,0,0,0,0,0,0,0,0,0,0,0,0,0,0,0,0,0,0,0,0,0,0,2.1747,2.1748,0,2.1864,2.1866,2.1867,2.1961,2.1962,2.1963,2.1964,2.2079,2.2081,2.2084,0,0,0,0,0,0,0,0,0,0,0,0,0,2.16,2.1602,2.1747,2.1748,2.175,2.1864,2.1866,2.1867,2.1961,2.1962,2.1964,2.1965,2.2079,2.2081,2.2084,0,0,0,0,0,0,0,0,0,0,0,0,0,2.1685,2.1603,2.1747,2.1811,2.1817,2.1864,2.1866,2.1868,2.1961,2.1963,2.1964,2.1965,2.2078,2.2081,2.2084,2.2075,0,0,2.2094,2.2095,0,0,0,0,0,0,0,0,2.168,2.169,2.18,2.1806,2.1814,2.19,2.1857,2.1937,2.1961,2.1906,2.1964,2.1966,2.2018,2.2026,2.2045,2.208,2.2085,2.2094,2.2096,2.2098,2.2099,0,0,0,0,0,0,0,2.1674,2.1686,2.1793,2.1801,2.181,2.1832,2.1846,2.1872,2.1952,2.1911,2.1918,2.1931,2.2022,2.2042,2.2048,2.2087,2.2094,2.2097,2.2099,2.21,2.2123,2.2122,0,0,0,0,0,0,2.1659,2.168,2.179,2.1797,2.175,2.1834,2.1849,2.1871,2.1953,2.1966,2.193,2.1935,2.2035,2.2045,2.2053,2.205,2.2098,2.2101,2.2103,2.2124,2.2123,2.2121,0,0,0,0,0,0,2.1655,2.1668,2.1785,2.1741,2.1757,2.1835,2.1858,2.1872,2.1892,2.1967,2.1981,2.1935,2.2037,2.2048,2.207,2.2055,2.2102,2.2105,2.2126,2.2124,2.2122,2.2041,0,0,0,0,0,0,2.1651,2.1666,2.1664,2.174,2.1759,2.1801,2.1857,2.1874,2.1898,2.1906,2.1976,2.1988,2.2039,2.2064,2.2073,2.206,2.2108,2.2127,2.2125,2.2122,2.2045,2.2037,2.2029,0,0,0,0,0,2.1645,2.1635,2.1664,2.1676,2.1759,2.18,2.181,2.187,2.1896,2.1895,2.1943,2.1986,2.2055,2.2066,2.2076,2.2064,2.2129,2.2126,2.2123,2.2049,2.2038,2.2029,0,0,0,0,0,0,2.1553,2.1646,2.1679,2.1693,2.1738,2.1815,2.1815,2.1857,2.1894,2.19,2.1971,2.1986,2.2,2.2034,2.2044,2.206,2.2097,2.2096,2.2038,2.2028,2.202,2.2012,2.211,0,0,0,0,0,2.1535,2.1562,2.1641,2.1646,2.1667,2.1737,2.1757,2.1799,2.1848,2.1867,2.1917,2.1961,2.1993,2.2012,2.2045,2.205,2.2068,2.2047,2.2039,2.2032,2.203,2.2037,2.203,2.2111,2.2111,2.2111,0,0,2.1497,2.1551,2.1563,2.1629,2.1669,2.1694,2.1752,2.1776,2.1796,2.187,2.1895,2.1932,2.1986,2.2,2.2009,2.2029,2.2012,2.2028,2.2022,2.2024,2.2033,2.2026,2.2019,2.2109,2.2109,2.211,0,0,2.1441,2.1484,2.1494,2.1533,2.1594,2.1641,2.1643,2.1715,2.1744,2.177,2.1827,2.185,2.1903,2.194,2.1965,2.1925,2.1966,2.1933,2.189,2.1896,2.189,2.1885,2.1872,2.1866,2.1931,2.1931,2.1931,0,2.1385,2.1428,2.1493,2.1515,2.1543,2.1613,2.1624,2.1658,2.1725,2.1742,2.1764,2.1834,2.1875,2.1899,2.189,2.1907,2.1912,2.1926,2.1886,2.1881,2.1877,2.1866,2.186,2.1927,2.1927,2.1928,2.1928,0,2.1357,2.1386,2.1386,2.1452,2.148,2.1495,2.1563,2.1582,2.1622,2.1666,2.1692,2.1744,2.179,2.1799,2.1837,2.1829,2.184,2.1873,2.1912,2.1864,2.1855,2.185,2.1921,2.1922,2.1923,2.1924,0,0,2.1247,2.1351,2.135,2.1381,2.1454,2.1476,2.1495,2.1542,2.1558,2.1602,2.162,2.1663,2.1695,2.1724,2.1767,2.1772,2.1739,2.1805,2.1807,2.1792,2.1735,2.1711,2.1704,2.1766,2.1766,2.1765,2.1731,0,2.1204,2.1244,2.1304,2.1324,2.1352,2.142,2.1436,2.1482,2.1523,2.1552,2.1597,2.1628,2.1667,2.1685,2.1693,2.1741,2.1728,2.1744,2.1783,2.1784,2.177,2.1699,2.1674,2.1639,2.1727,2.1727,2.1726,0,2.1159,2.1202,2.1225,2.1298,2.1311,2.1325,2.1374,2.1401,2.1453,2.1484,2.1517,2.1564,2.1587,2.1621,2.1654,2.1663,2.1683,2.1709,2.1709,2.1716,2.1753,2.1706,2.1629,2.1624,2.172,2.1721,2.1721,0,2.1079,2.1142,2.1165,2.1189,2.1273,2.1282,2.1317,2.1372,2.1397,2.1438,2.1456,2.1498,2.1522,2.1554,2.1611,2.1631,2.1638,2.1677,2.1664,2.1662,2.1663,2.1663,2.159,2.1673,2.1673,2.1673,2.1673,0,2.1025,2.1037,2.113,2.1144,2.1159,2.1228,2.1241,2.1282,2.133,2.1353,2.1413,2.1432,2.1507,2.1535,2.1579,2.16,2.161,2.1635,2.1647,2.1631,2.1628,2.1645,2.165,2.1672,2.1672,2.1672,2.1672,0,2.0938,2.1001,2.1031,2.1109,2.1128,2.1136,2.1203,2.1219,2.1264,2.1292,2.1303,2.1374,2.141,2.1471,2.1523,2.1554,2.1567,2.1586,2.155,2.1557,2.1542,2.1543,2.1479,2.1475,2.1558,2.1557,2.1556,0,2.0901,2.0912,2.0992,2.1013,2.1047,2.1078,2.1105,2.1172,2.1197,2.126,2.1268,2.1309,2.1347,2.1401,2.1457,2.1498,2.152,2.1494,2.1526,2.151,2.1521,2.1521,2.1523,2.1487,2.1486,2.1485,2.1484,0,2.0829,2.086,2.0897,2.0945,2.0976,2.1016,2.1059,2.1072,2.1149,2.1174,2.1213,2.1242,2.1298,2.1338,2.1388,2.1423,2.1466,2.1474,2.1473,2.1457,2.1437,2.1449,2.1532,2.1475,2.1476,2.1477,2.1477,2.1477,2.0767,2.0781,2.084,2.088,2.092,2.0959,2.0979,2.1028,2.1063,2.1115,2.1152,2.1189,2.1242,2.1314,2.1346,2.1375,2.1395,2.1393,2.1394,2.1393,2.1387,2.1431,2.1384,2.1384,2.1385,2.1385,2.1385,0,2.07,2.0742,2.0777,2.0838,2.0868,2.0908,2.0959,2.0982,2.1014,2.1061,2.1097,2.1143,2.1183,2.1242,2.1286,2.1298,2.1319,2.1308,2.1308,2.1316,2.1366,2.1363,2.129,2.129,2.129,2.129,2.129,2.129,2.0668,2.0695,2.0733,2.078,2.0821,2.086,2.0885,2.0922,2.096,2.1009,2.1043,2.1082,2.1134,2.1183,2.1222,2.1238,2.1252,2.1234,2.1257,2.1303,2.1312,2.132,2.1318,2.1236,2.1236,2.1204,2.1204,2.1204]}]]